GW4049 Weather Reports


time (UTC)temp
C
wind
direction
speed
KPH
gust
KPH
rain 1hr
cm
rain 24hr
cm
rain mn
cm
humidity
%
barometer
mb
20260902000703 17 254 0.0 0.0 0.00 0.13 0.13 56 1032.0
20260902000158 17 271 0.0 0.0 0.00 0.13 0.13 50 1031.6
20260901235657 17 261 0.0 0.0 0.00 0.13 0.13 52 1031.9
20260901235153 17 250 0.0 3.2 0.00 0.13 0.13 49 1031.8
20260901234652 17 257 0.0 0.0 0.00 0.13 0.13 51 1031.8
20260901234147 17 285 1.6 1.6 0.00 0.13 0.13 50 1031.9
20260901233642 17 275 0.0 1.6 0.00 0.13 0.13 51 1031.9
20260901233138 17 248 0.0 0.0 0.00 0.13 0.13 51 1031.8
20260901232638 17 267 0.0 3.2 0.00 0.13 0.13 53 1031.8
20260901232133 17 253 0.0 1.6 0.00 0.13 0.13 51 1031.6
20260901231630 17 266 1.6 4.8 0.00 0.13 0.13 57 1031.8
20260901231126 17 307 4.8 4.8 0.00 0.13 0.13 49 1031.9
20260901230621 17 338 0.0 6.4 0.00 0.13 0.13 49 1031.8
20260901230121 17 67 3.2 12.9 0.00 0.13 0.13 49 1031.8
20260901225616 18 25 4.8 9.7 0.00 0.13 0.13 48 1031.5
20260901225116 18 242 0.0 4.8 0.00 0.13 0.13 46 1031.5
20260901224612 19 263 0.0 6.4 0.00 0.13 0.13 41 1031.8
20260901224108 19 256 1.6 3.2 0.00 0.13 0.13 42 1031.8
20260901223603 18 324 1.6 4.8 0.00 0.13 0.13 42 1031.8
20260901223058 17 331 1.6 4.8 0.00 0.13 0.13 46 1031.6
20260901222554 17 276 1.6 4.8 0.00 0.13 0.13 46 1031.5
20260901222050 17 49 3.2 6.4 0.00 0.13 0.13 47 1031.6
20260901221546 17 267 1.6 4.8 0.00 0.13 0.13 45 1031.9
20260901221041 17 272 0.0 4.8 0.00 0.13 0.13 46 1031.6
20260901220541 17 332 0.0 4.8 0.00 0.13 0.13 46 1032.1
20260901220040 17 351 3.2 12.9 0.00 0.13 0.13 46 1031.8
20260901215538 17 10 6.4 11.3 0.00 0.13 0.13 44 1031.9
20260901215032 18 302 8.0 12.9 0.00 0.13 0.13 44 1032.0
20260901214531 18 283 6.4 12.9 0.00 0.13 0.13 44 1032.3
20260901214026 17 348 6.4 6.4 0.00 0.13 0.13 45 1032.0
20260901213525 18 10 3.2 4.8 0.00 0.13 0.13 44 1032.1
20260901213020 18 307 4.8 11.3 0.00 0.13 0.13 44 1032.0
20260901212520 18 318 3.2 9.7 0.00 0.13 0.13 46 1032.3
20260901212017 18 260 1.6 1.6 0.00 0.13 0.13 43 1032.3
20260901211511 18 340 14.5 22.5 0.00 0.13 0.13 43 1032.3
20260901211008 18 317 14.5 20.9 0.00 0.13 0.13 44 1032.0
20260901210503 18 3 14.5 20.9 0.00 0.13 0.13 44 1032.1
20260901205959 19 294 14.5 20.9 0.00 0.13 0.13 43 1032.0
20260901205454 18 327 11.3 20.9 0.00 0.13 0.13 44 1032.4
20260901204948 17 303 8.0 14.5 0.00 0.13 0.13 49 1032.3
20260901204446 18 346 8.0 9.7 0.00 0.13 0.13 47 1032.3
20260901203944 18 330 4.8 9.7 0.00 0.13 0.13 50 1032.3
20260901203434 19 299 1.6 3.2 0.00 0.13 0.13 44 1032.1
20260901202929 19 275 4.8 9.7 0.00 0.13 0.13 38 1032.5
20260901202424 20 337 4.8 11.3 0.00 0.13 0.13 38 1032.3
20260901201920 21 340 3.2 11.3 0.00 0.13 0.13 33 1032.4
20260901201414 21 333 1.6 9.7 0.00 0.13 0.13 34 1032.5
20260901200908 20 260 6.4 9.7 0.00 0.13 0.13 34 1032.5
20260901200403 20 148 16.1 20.9 0.00 0.13 0.13 34 1032.0
20260901195902 20 49 6.4 11.3 0.00 0.13 0.13 37 1032.1
20260901195355 20 330 4.8 11.3 0.00 0.13 0.13 37 1032.5
20260901194850 20 241 6.4 12.9 0.00 0.13 0.13 35 1032.3
20260901194344 20 228 3.2 11.3 0.00 0.13 0.13 37 1032.4
20260901193842 20 112 6.4 22.5 0.00 0.13 0.13 37 1032.4
20260901193340 21 224 8.0 14.5 0.00 0.13 0.13 35 1032.7
20260901192835 20 351 4.8 12.9 0.00 0.13 0.13 38 1032.5
20260901192330 19 323 4.8 9.7 0.00 0.13 0.13 41 1032.1
20260901191826 19 330 14.5 16.1 0.00 0.13 0.13 37 1032.4
20260901191321 20 16 6.4 12.9 0.00 0.13 0.13 39 1032.3
20260901190817 20 287 3.2 17.7 0.00 0.13 0.13 38 1032.4
20260901190311 19 311 8.0 12.9 0.00 0.13 0.13 42 1032.7
20260901185810 20 320 14.5 22.5 0.00 0.13 0.13 41 1032.8
20260901185309 20 246 4.8 16.1 0.00 0.13 0.13 38 1032.8
20260901184805 19 301 11.3 16.1 0.00 0.13 0.13 39 1032.5
20260901184300 21 302 6.4 9.7 0.00 0.13 0.13 38 1032.7
20260901183755 20 259 0.0 9.7 0.00 0.13 0.13 36 1032.8
20260901183255 20 233 6.4 9.7 0.00 0.13 0.13 36 1032.8
20260901182751 20 338 12.9 17.7 0.00 0.13 0.13 40 1033.1
20260901182250 19 257 8.0 11.3 0.00 0.13 0.13 40 1032.8
20260901181745 19 234 14.5 16.1 0.00 0.13 0.13 38 1032.5
20260901181240 18 260 3.2 4.8 0.00 0.13 0.13 39 1033.1
20260901180739 19 281 0.0 11.3 0.00 0.13 0.13 38 1032.9
20260901180238 18 266 0.0 4.8 0.00 0.13 0.13 39 1032.9
20260901175737 19 183 3.2 14.5 0.00 0.13 0.13 41 1032.9
20260901175233 17 321 3.2 6.4 0.00 0.13 0.13 42 1033.1
20260901174727 18 244 4.8 6.4 0.00 0.13 0.13 42 1033.2
20260901174224 18 250 4.8 6.4 0.00 0.13 0.13 43 1033.2
20260901173719 17 284 4.8 6.4 0.00 0.13 0.13 43 1033.3
20260901173213 18 341 4.8 6.4 0.00 0.13 0.13 46 1033.2
20260901172710 19 302 3.2 4.8 0.00 0.13 0.13 42 1033.2
20260901172208 17 287 1.6 16.1 0.00 0.13 0.13 45 1033.1
20260901171707 17 298 4.8 12.9 0.00 0.13 0.13 44 1033.2
20260901171201 17 273 8.0 20.9 0.00 0.13 0.13 44 1033.5
20260901170700 17 254 0.0 4.8 0.00 0.13 0.13 43 1033.5
20260901170155 17 356 4.8 9.7 0.00 0.13 0.13 46 1032.9
20260901165654 17 343 4.8 9.7 0.00 0.13 0.13 49 1033.5
20260901165149 16 50 1.6 9.7 0.00 0.13 0.13 48 1033.2
20260901164645 17 350 6.4 14.5 0.00 0.13 0.13 48 1033.3
20260901164140 17 254 0.0 3.2 0.00 0.13 0.13 44 1033.2
20260901163635 17 270 3.2 6.4 0.00 0.13 0.13 47 1033.2
20260901163134 17 253 3.2 3.2 0.00 0.13 0.13 44 1033.1
20260901162630 17 224 3.2 4.8 0.00 0.13 0.13 48 1032.9
20260901162124 17 243 0.0 3.2 0.00 0.13 0.13 46 1033.2
20260901161623 16 212 3.2 6.4 0.00 0.13 0.13 46 1032.9
20260901161122 17 90 4.8 4.8 0.00 0.13 0.13 47 1033.1
20260901160619 17 263 0.0 0.0 0.00 0.13 0.13 48 1032.8
20260901160114 16 284 4.8 4.8 0.00 0.13 0.13 51 1033.2
20260901155613 16 292 6.4 6.4 0.00 0.13 0.13 51 1033.2
20260901155109 16 271 3.2 3.2 0.00 0.13 0.13 54 1033.1
20260901154608 15 279 1.6 1.6 0.00 0.13 0.13 59 1033.1
20260901154103 15 281 3.2 6.4 0.00 0.13 0.13 57 1032.9
20260901153558 16 257 1.6 4.8 0.00 0.13 0.13 57 1033.2
20260901153057 15 251 0.0 4.8 0.00 0.13 0.13 56 1033.3
20260901152553 14 242 3.2 3.2 0.00 0.13 0.13 57 1033.3
20260901152051 13 255 0.0 1.6 0.00 0.13 0.13 64 1033.1
20260901151547 12 252 0.0 0.0 0.00 0.13 0.13 76 1033.1
20260901151046 12 256 0.0 0.0 0.00 0.13 0.13 84 1032.9
20260901150544 11 240 1.6 1.6 0.00 0.13 0.13 84 1033.3
20260901150038 11 234 3.2 3.2 0.00 0.13 0.13 86 1033.2
20260901145536 11 227 3.2 3.2 0.00 0.13 0.13 84 1032.8
20260901145030 11 228 3.2 3.2 0.00 0.13 0.13 84 1033.2
20260901144526 11 221 3.2 4.8 0.00 0.13 0.13 86 1032.8
20260901144021 10 206 3.2 4.8 0.00 0.13 0.13 89 1033.1
20260901143516 10 223 3.2 3.2 0.00 0.13 0.13 88 1033.1
20260901143014 10 228 3.2 3.2 0.00 0.13 0.13 87 1032.9
20260901142508 11 235 1.6 3.2 0.00 0.13 0.13 84 1033.2
20260901142003 10 213 3.2 4.8 0.00 0.13 0.13 74 1032.9
20260901141502 11 219 1.6 4.8 0.00 0.13 0.13 75 1033.1
20260901140958 11 200 4.8 4.8 0.00 0.13 0.13 77 1033.1
20260901140456 11 240 3.2 4.8 0.00 0.13 0.13 75 1033.1
20260901135950 11 224 3.2 4.8 0.00 0.13 0.13 76 1033.1
20260901135449 10 265 3.2 4.8 0.00 0.13 0.13 86 1033.1
20260901134946 10 219 3.2 4.8 0.00 0.13 0.13 84 1032.8
20260901134441 10 216 4.8 4.8 0.00 0.13 0.13 79 1032.8
20260901133936 10 213 4.8 4.8 0.00 0.13 0.13 83 1032.8
20260901133435 10 212 4.8 6.4 0.00 0.13 0.13 82 1032.7
20260901132934 10 219 4.8 4.8 0.00 0.13 0.13 78 1032.4
20260901132429 10 213 4.8 6.4 0.00 0.13 0.13 81 1032.7
20260901131928 10 215 4.8 6.4 0.00 0.13 0.13 85 1032.4
20260901131427 8 208 4.8 9.7 0.00 0.13 0.13 91 1032.1
20260901130923 8 198 4.8 4.8 0.00 0.13 0.13 93 1032.1
20260901130423 8 190 6.4 6.4 0.00 0.13 0.13 91 1032.0
20260901125920 8 206 4.8 6.4 0.00 0.13 0.13 94 1032.1
20260901125415 8 197 6.4 6.4 0.00 0.13 0.13 94 1031.8
20260901124914 8 201 6.4 6.4 0.00 0.13 0.13 95 1031.8
20260901124410 8 201 6.4 6.4 0.00 0.13 0.13 95 1031.8
20260901123905 8 202 4.8 6.4 0.00 0.13 0.13 96 1031.8
20260901123400 7 199 6.4 6.4 0.00 0.13 0.13 98 1031.5
20260901122858 8 206 4.8 4.8 0.00 0.13 0.13 98 1031.5
20260901122353 8 206 4.8 4.8 0.00 0.13 0.13 98 1031.5
20260901121852 8 204 4.8 4.8 0.00 0.13 0.13 98 1031.4
20260901121347 8 212 4.8 4.8 0.00 0.13 0.13 98 1031.4
20260901120842 8 216 3.2 4.8 0.00 0.13 0.13 98 1031.4
20260901120336 8 219 3.2 4.8 0.00 0.13 0.13 98 1031.2
20260901115832 8 211 3.2 4.8 0.00 0.13 0.13 98 1031.2
20260901115327 8 204 4.8 4.8 0.00 0.13 0.13 98 1031.4
20260901114825 8 200 4.8 4.8 0.00 0.13 0.13 97 1031.5
20260901114320 8 206 4.8 4.8 0.00 0.13 0.13 97 1031.5
20260901113818 8 207 4.8 4.8 0.00 0.13 0.13 97 1031.4
20260901113313 8 222 3.2 3.2 0.00 0.13 0.13 97 1031.6
20260901112808 8 224 3.2 3.2 0.00 0.13 0.13 96 1031.2
20260901112307 9 232 3.2 4.8 0.00 0.13 0.13 93 1031.4
20260901111802 9 224 8.0 9.7 0.00 0.13 0.13 90 1031.1
20260901111301 8 232 3.2 4.8 0.00 0.13 0.13 92 1031.0
20260901110800 10 207 4.8 6.4 0.00 0.13 0.13 90 1031.1
20260901110255 10 187 8.0 9.7 0.00 0.13 0.13 87 1031.2
20260901105752 10 223 3.2 9.7 0.00 0.13 0.13 88 1030.8
20260901105252 10 232 4.8 6.4 0.00 0.13 0.13 88 1031.4
20260901104747 10 210 8.0 9.7 0.00 0.13 0.13 89 1031.4
20260901104243 9 189 6.4 9.7 0.00 0.13 0.13 94 1031.5
20260901103743 8 213 3.2 9.7 0.00 0.13 0.13 94 1031.4
20260901103237 9 197 6.4 6.4 0.00 0.13 0.13 94 1031.5
20260901102732 8 217 6.4 9.7 0.00 0.13 0.13 95 1031.5
20260901102232 8 231 3.2 4.8 0.00 0.13 0.13 97 1031.5
20260901101729 8 226 3.2 4.8 0.00 0.13 0.13 96 1031.2
20260901101229 8 232 4.8 4.8 0.00 0.13 0.13 96 1031.5
20260901100728 9 207 4.8 4.8 0.00 0.13 0.13 95 1031.5
20260901100223 10 254 0.0 0.0 0.00 0.13 0.13 93 1031.5
20260901095721 10 221 3.2 6.4 0.00 0.13 0.13 89 1031.4
20260901095219 10 191 4.8 9.7 0.00 0.13 0.13 89 1031.9
20260901094719 10 177 4.8 11.3 0.00 0.13 0.13 90 1032.0
20260901094214 10 167 6.4 9.7 0.00 0.13 0.13 85 1032.0
20260901093709 10 224 6.4 12.9 0.00 0.13 0.13 87 1031.6
20260901093208 10 251 3.2 12.9 0.00 0.13 0.13 87 1031.8
20260901092704 10 185 6.4 11.3 0.00 0.13 0.13 87 1031.8
20260901092200 10 204 12.9 17.7 0.00 0.13 0.13 87 1031.8
20260901091650 10 220 6.4 9.7 0.00 0.13 0.13 88 1031.9
20260901091149 10 180 6.4 11.3 0.00 0.13 0.13 89 1032.0
20260901090644 10 205 3.2 6.4 0.00 0.13 0.13 89 1032.0
20260901090140 10 224 4.8 11.3 0.00 0.13 0.13 91 1032.1
20260901085636 9 242 3.2 3.2 0.00 0.13 0.13 94 1032.0
20260901085132 8 218 6.4 9.7 0.00 0.13 0.13 97 1032.1
20260901084628 8 233 3.2 6.4 0.00 0.13 0.13 98 1032.4
20260901084124 8 232 4.8 4.8 0.00 0.13 0.13 98 1032.3
20260901083624 8 240 1.6 3.2 0.00 0.13 0.13 98 1032.1
20260901083122 8 247 1.6 4.8 0.00 0.13 0.13 98 1032.3
20260901082617 8 222 3.2 3.2 0.00 0.13 0.13 98 1032.3
20260901082113 8 224 3.2 3.2 0.00 0.13 0.13 98 1032.1
20260901081608 8 237 1.6 3.2 0.00 0.13 0.13 98 1032.3
20260901081108 8 244 1.6 3.2 0.00 0.13 0.13 98 1032.3
20260901080602 8 232 3.2 4.8 0.00 0.13 0.13 98 1032.4
20260901080101 8 225 3.2 3.2 0.00 0.13 0.13 98 1032.3
20260901075556 8 238 1.6 3.2 0.00 0.13 0.13 98 1032.4
20260901075055 8 218 0.0 0.0 0.00 0.13 0.13 99 1032.5
20260901074549 8 242 0.0 0.0 0.00 0.13 0.13 99 1032.5
20260901074045 8 241 1.6 1.6 0.00 0.13 0.13 98 1032.7
20260901073541 8 242 1.6 3.2 0.13 0.13 0.13 98 1032.7
20260901073036 9 254 0.0 0.0 0.13 0.13 0.13 97 1032.9
20260901072531 9 253 1.6 3.2 0.00 0.10 0.10 97 1032.7
20260901072026 9 252 0.0 0.0 0.00 0.10 0.10 97 1032.8
20260901071525 8 262 1.6 4.8 0.00 0.10 0.10 96 1032.9
20260901071024 9 247 1.6 3.2 0.00 0.10 0.10 96 1032.8
20260901070519 9 233 3.2 4.8 0.00 0.10 0.10 96 1032.7
20260901070015 9 232 3.2 6.4 0.00 0.10 0.10 96 1032.7
20260901065509 9 250 1.6 3.2 0.00 0.10 0.10 96 1032.5
20260901064958 9 241 3.2 6.4 0.00 0.10 0.10 95 1032.7
20260901064455 9 244 3.2 11.3 0.18 0.10 0.10 95 1032.7
20260901063952 9 241 8.0 12.9 0.48 0.10 0.10 96 1032.9
20260901063448 9 204 4.8 6.4 0.48 0.08 0.08 97 1033.2
20260901062943 8 246 3.2 4.8 0.18 0.03 0.03 98 1033.5
20260901062438 9 238 1.6 3.2 0.00 0.00 0.00 98 1032.9
20260901061929 9 245 1.6 3.2 0.00 0.00 0.00 98 1032.9
20260901061424 9 237 1.6 3.2 0.00 0.00 0.00 98 1033.1
20260901060914 9 234 3.2 3.2 0.00 0.00 0.00 98 1032.9
20260901060409 9 237 1.6 3.2 0.00 0.00 0.00 98 1032.7
20260901055908 9 246 1.6 1.6 0.00 0.30 0.30 98 1033.1
20260901055405 9 231 3.2 3.2 0.00 0.30 0.30 98 1033.1
20260901054901 9 219 3.2 3.2 0.13 0.30 0.30 97 1033.1
20260901054358 9 238 3.2 4.8 0.13 0.30 0.30 97 1033.1
20260901053853 9 229 6.4 9.7 0.00 0.28 0.28 98 1033.9
20260901053349 9 224 3.2 4.8 0.00 0.28 0.28 99 1033.5
20260901052844 9 228 3.2 4.8 0.00 0.28 0.28 99 1033.1
20260901052339 9 239 1.6 3.2 0.00 0.28 0.28 99 1032.9
20260901051838 9 226 3.2 3.2 0.00 0.28 0.28 99 1032.7
20260901051333 9 227 3.2 3.2 0.00 0.28 0.28 99 1033.1
20260901050828 9 224 3.2 3.2 0.00 0.28 0.28 99 1033.1
20260901050319 9 230 3.2 3.2 0.00 0.28 0.28 99 1033.3
20260901045813 9 234 1.6 3.2 0.00 0.28 0.28 99 1033.5
20260901045308 9 223 3.2 4.8 0.00 0.28 0.28 99 1033.3
20260901044803 9 229 3.2 3.2 0.00 0.28 0.28 99 1033.2
20260901044259 9 232 3.2 3.2 0.00 0.28 0.28 99 1033.3
20260901043754 9 219 4.8 4.8 0.00 0.28 0.28 99 1033.3
20260901043250 9 248 1.6 1.6 0.00 0.28 0.28 98 1033.5
20260901042750 9 223 3.2 3.2 0.00 0.28 0.28 98 1033.3
20260901042245 9 235 3.2 3.2 0.00 0.28 0.28 98 1033.3
20260901041740 9 242 1.6 3.2 0.00 0.28 0.28 98 1033.5
20260901041240 9 221 3.2 3.2 0.00 0.28 0.28 98 1033.6
20260901040735 9 230 3.2 3.2 0.00 0.28 0.28 98 1033.5
20260901040233 9 241 3.2 3.2 0.00 0.28 0.28 97 1033.3
20260901035732 9 221 3.2 3.2 0.00 0.28 0.28 97 1033.5
20260901035232 10 224 3.2 4.8 0.00 0.28 0.28 96 1033.5
20260901034731 10 220 3.2 3.2 0.00 0.28 0.28 95 1033.3
20260901034226 10 215 3.2 3.2 0.00 0.28 0.28 92 1033.2
20260901033726 10 274 3.2 4.8 0.00 0.28 0.28 95 1033.2
20260901033220 10 270 1.6 4.8 0.00 0.28 0.28 96 1033.3
20260901032718 10 247 1.6 3.2 0.00 0.28 0.28 97 1033.5
20260901032213 10 246 1.6 1.6 0.00 0.28 0.28 95 1033.3
20260901031708 10 354 3.2 4.8 0.00 0.28 0.28 94 1033.3
20260901031204 10 255 3.2 3.2 0.00 0.28 0.28 93 1033.1
20260901030659 10 232 6.4 6.4 0.00 0.28 0.28 92 1033.2
20260901030158 10 263 1.6 1.6 0.00 0.28 0.28 92 1033.7
20260901025653 10 253 0.0 6.4 0.00 0.28 0.28 88 1033.7
20260901025148 10 243 4.8 11.3 0.00 0.28 0.28 93 1033.7
20260901024648 10 248 0.0 1.6 0.00 0.28 0.28 96 1033.9
20260901024147 10 271 0.0 0.0 0.18 0.28 0.28 94 1033.9
20260901023646 10 259 0.0 3.2 0.18 0.28 0.28 94 1034.5
20260901023141 10 179 6.4 9.7 0.00 0.25 0.25 95 1034.6
20260901022636 10 193 6.4 12.9 0.13 0.25 0.25 95 1034.5
20260901022131 10 248 6.4 11.3 0.30 0.25 0.25 95 1034.5
20260901021621 10 241 6.4 11.3 0.48 0.23 0.23 95 1034.5
20260901021117 10 237 6.4 11.3 0.48 0.18 0.18 95 1034.5
20260901020613 10 252 9.7 12.9 0.48 0.13 0.13 94 1034.5
20260901020108 10 199 8.0 14.5 0.61 0.10 0.10 92 1034.0
20260901015603 11 239 6.4 12.9 0.30 0.05 0.05 90 1034.0
20260901015102 11 206 8.0 11.3 0.00 0.00 0.00 87 1034.0
20260901014557 12 246 12.9 16.1 0.00 0.00 0.00 79 1034.0
20260901014053 13 248 3.2 6.4 0.00 0.00 0.00 74 1033.7
20260901013549 13 195 3.2 4.8 0.00 0.00 0.00 76 1033.7
20260901013044 13 231 3.2 3.2 0.00 0.00 0.00 75 1033.5
20260901012544 13 242 0.0 1.6 0.00 0.00 0.00 69 1033.6
20260901012039 13 247 3.2 3.2 0.00 0.00 0.00 70 1033.2
20260901011536 13 298 3.2 3.2 0.00 0.00 0.00 67 1033.3
20260901011033 13 290 0.0 4.8 0.00 0.00 0.00 68 1033.1
20260901010528 13 296 1.6 6.4 0.00 0.00 0.00 68 1032.7
20260901010028 14 298 3.2 4.8 0.00 0.00 0.00 69 1032.8
20260901005522 14 273 0.0 3.2 0.00 0.00 0.00 69 1032.9
20260901005017 14 316 3.2 3.2 0.00 0.00 0.00 68 1032.9
20260901004512 14 284 3.2 3.2 0.00 0.00 0.00 69 1032.9
20260901004006 14 283 1.6 4.8 0.00 0.00 0.00 69 1032.9
20260901003502 14 281 3.2 3.2 0.00 0.00 0.00 69 1032.9
20260901002959 15 348 6.4 9.7 0.00 0.00 0.00 68 1033.2
20260901002454 15 298 1.6 4.8 0.00 0.00 0.00 68 1033.2
20260901001948 15 304 6.4 12.9 0.00 0.00 0.00 64 1033.3
20260901001444 15 314 1.6 4.8 0.00 0.00 0.00 62 1033.1